Wind_Speed
22 20 19 18 17 16 15 13 12 11 10 9 9 8 8 7 7 7 7 7 8 8 9 9 9 10 10 11 12 13 14 15 16 16 17 18 19 19 20 21 22 23 24
23 22 20 19 18 17 16 15 13 12 12 11 10 9 9 8 8 8 8 8 8 8 9 9 10 11 11 12 13 14 15 16 17 17 18 19 20 21 21 22 23 24 25
24 23 22 21 20 19 18 16 15 14 13 12 11 11 10 9 9 9 9 9 9 9 10 10 11 12 12 13 14 15 16 17 18 18 19 20 21 22 23 24 25 26 27
25 24 23 22 21 20 19 18 17 15 14 13 13 12 11 10 10 10 9 9 10 10 11 12 12 13 13 14 15 16 17 17 18 19 20 21 22 24 25 26 27 28 29
26 26 25 23 22 21 20 19 18 16 15 14 14 13 12 11 11 10 10 11 11 12 12 12 13 13 14 15 16 16 17 18 19 20 21 23 24 25 26 27 28 29 31
27 27 26 25 24 23 21 20 19 18 17 16 15 14 13 12 12 11 11 12 12 13 13 13 13 14 14 15 16 17 19 20 21 22 23 25 26 27 28 29 30 32 32
29 29 28 26 25 24 23 21 20 19 18 17 16 15 14 13 13 12 12 13 13 13 13 13 13 14 15 16 17 18 19 20 22 23 25 26 27 28 30 31 32 33 34
31 30 30 28 26 25 24 23 22 20 19 18 17 16 15 14 14 13 13 14 14 13 13 13 14 15 16 17 18 19 21 22 23 25 26 28 29 30 31 32 33 34 35
33 32 31 30 28 26 25 24 23 21 20 19 18 17 16 15 15 15 15 14 14 14 14 14 15 16 17 18 19 20 22 23 24 26 28 29 30 31 32 33 34 34 35
34 33 32 31 30 28 26 25 24 22 21 20 19 18 18 17 16 16 15 15 15 15 15 15 16 17 17 19 20 21 23 24 26 27 28 30 30 31 32 33 34 35 35
35 34 33 32 31 30 28 26 25 24 22 21 20 20 19 18 17 16 16 16 15 15 15 16 16 17 19 20 21 23 24 25 27 28 29 30 31 32 33 34 35 35 36
35 35 34 34 32 31 30 28 26 25 23 22 22 21 20 19 18 17 17 16 16 16 16 17 18 19 20 21 22 24 25 26 28 29 30 31 32 33 34 35 35 35 36
36 36 35 35 33 32 31 29 27 26 25 24 23 22 21 20 19 19 18 17 17 17 17 18 19 20 21 22 24 25 26 28 29 30 31 32 32 34 34 35 35 36 36
37 36 36 35 34 33 32 30 29 27 26 25 24 23 22 21 20 20 19 18 18 18 18 19 20 21 22 24 25 26 27 29 30 30 31 32 33 34 35 35 36 36 36
38 37 36 35 34 34 33 32 30 29 27 26 25 24 23 22 21 21 20 20 19 19 20 20 22 23 24 25 26 27 28 29 30 31 32 33 34 35 35 36 36 36 36
39 38 36 35 35 34 34 33 32 30 29 27 26 24 24 23 22 22 21 20 20 20 21 22 23 24 25 26 27 28 29 30 31 32 33 34 35 35 36 36 36 36 37
40 38 37 36 35 35 34 34 33 32 31 29 27 26 25 24 23 23 22 21 21 22 22 23 24 25 26 27 28 29 30 31 32 33 34 34 35 35 36 36 36 37 37
41 39 38 36 36 35 35 34 34 33 32 31 29 27 26 25 24 24 23 23 23 23 23 25 25 26 26 28 28 30 31 32 33 33 34 35 35 36 36 36 37 37 38
42 40 39 37 37 36 35 34 34 33 32 31 30 28 27 26 25 24 24 24 24 24 25 26 26 27 27 28 29 30 31 33 33 34 34 35 36 37 37 37 38 38 39
43 41 40 38 38 37 36 35 35 34 33 32 30 29 28 27 26 25 25 25 25 25 26 27 27 27 28 29 30 31 32 33 34 34 35 36 37 37 38 38 38 39 41
44 42 41 39 39 38 37 36 35 33 32 32 31 30 28 27 27 26 26 26 26 27 27 27 27 28 29 30 31 32 33 34 34 35 36 37 37 38 38 39 39 41 42
45 43 42 40 39 38 37 36 35 34 33 32 32 31 29 28 28 28 27 27 27 27 28 28 28 29 30 31 32 32 33 34 34 35 36 37 38 38 39 40 41 42 43
46 44 42 41 40 39 38 37 36 35 34 33 32 31 30 29 29 29 28 28 28 28 28 28 29 30 31 32 32 33 33 34 35 35 36 37 38 39 40 41 42 44 45
46 45 43 41 40 40 39 38 36 35 34 33 32 31 31 30 30 29 29 29 29 29 29 29 30 31 32 32 33 33 34 34 35 35 37 38 39 40 41 42 44 45 46
47 46 44 42 41 41 40 39 37 35 35 34 33 32 31 31 30 30 30 30 29 30 30 30 31 31 32 33 33 34 34 35 35 36 37 39 40 41 42 43 44 46 47
49 47 45 43 42 41 40 39 37 36 35 35 34 33 32 31 31 30 31 30 30 30 31 31 31 32 33 33 34 34 35 35 36 37 38 39 40 41 43 44 45 47 48
Wind_Direction
222 221 222 223 224 225 226 227 229 231 234 238 240 243 249 255 262 272 277 284 293 298 302 305 308 312 315 317 317 316 314 313 314 315 315 316 315 314 314 313 312 311 310
223 223 223 225 225 226 228 229 231 233 236 237 239 244 248 255 264 270 276 286 292 296 301 304 308 311 315 316 316 316 315 314 315 315 316 316 315 315 314 313 312 311 309
223 223 224 226 226 227 228 229 231 235 237 237 239 243 248 256 263 268 275 285 290 295 299 303 307 310 313 314 315 316 315 314 315 316 317 316 315 315 315 314 312 311 310
222 223 224 225 226 227 228 229 231 233 235 236 239 243 248 255 261 266 274 284 288 292 296 301 304 307 310 311 313 313 314 315 316 317 318 317 317 317 316 315 314 312 311
221 222 223 223 224 226 228 229 229 230 233 236 240 243 248 253 258 263 271 280 284 290 295 299 302 305 307 310 312 313 314 316 316 318 318 318 318 317 316 315 314 313 311
221 222 222 222 223 225 227 228 228 230 233 235 240 243 247 251 255 261 269 278 283 288 293 298 303 305 308 311 313 313 314 315 316 318 318 318 317 317 316 316 314 313 311
222 222 222 222 223 225 226 227 229 230 232 235 239 242 246 249 255 262 269 277 282 287 292 297 302 305 309 311 312 312 314 315 317 317 318 318 318 317 317 316 315 314 313
223 222 222 222 223 224 226 227 228 230 232 235 237 240 243 248 255 261 268 276 280 285 291 296 301 305 308 309 310 313 315 316 317 318 318 318 318 317 317 316 316 315 314
224 223 223 222 222 224 226 226 227 229 231 234 236 238 242 248 255 260 267 274 278 283 288 294 299 304 308 310 312 314 316 317 317 318 318 318 318 318 318 317 316 316 315
225 224 223 222 223 225 226 226 227 229 231 233 234 237 241 248 254 260 267 273 277 281 286 292 298 304 308 310 313 315 317 318 318 318 318 317 318 318 318 317 317 317 316
225 224 224 223 223 225 226 227 228 228 230 232 234 237 240 246 253 260 266 272 276 280 285 290 297 303 307 310 312 314 316 317 318 318 318 318 318 318 318 318 317 317 317
224 224 224 223 224 225 225 226 228 228 229 231 234 237 241 246 252 259 265 271 276 280 284 289 296 302 306 309 311 313 315 317 318 318 318 318 318 318 318 318 318 317 317
223 223 224 223 224 224 225 226 228 228 229 231 234 237 241 247 252 258 264 271 277 280 284 289 296 301 305 308 310 313 315 316 317 318 318 319 318 318 318 318 317 317 317
222 223 224 223 223 223 224 225 226 228 229 231 234 237 242 247 251 258 263 271 277 280 284 290 295 299 304 307 309 312 314 316 316 318 318 318 318 318 318 318 317 317 317
222 222 224 224 223 223 224 225 226 228 228 231 234 238 243 248 252 258 264 270 276 280 284 289 295 299 302 306 308 311 314 315 316 317 317 318 318 318 318 318 317 317 316
222 222 223 224 224 223 223 224 225 227 229 231 234 239 244 249 253 259 264 270 275 280 284 290 295 298 302 305 308 310 312 314 315 316 316 317 317 318 318 318 317 317 316
221 220 222 224 224 223 224 224 225 227 229 231 235 240 245 250 254 259 264 270 275 279 284 290 294 298 302 305 307 309 311 313 314 315 315 316 317 317 317 317 317 317 316
219 219 221 223 224 224 225 226 227 228 230 232 236 240 246 250 254 259 264 269 274 279 284 290 294 298 301 304 306 308 310 311 312 313 314 315 316 316 316 316 316 316 316
219 219 220 222 223 224 225 226 227 228 231 233 237 241 246 249 253 259 264 269 274 279 284 290 294 297 300 303 305 307 309 310 311 313 314 314 315 316 315 315 315 315 315
219 219 220 221 223 224 224 226 227 229 231 234 237 241 246 250 254 259 264 269 274 279 284 289 293 296 299 302 304 306 308 310 311 312 313 314 315 315 315 314 314 314 314
219 220 221 221 222 224 224 225 227 229 232 234 238 242 246 250 254 260 264 269 274 279 284 289 292 295 298 301 303 305 307 309 310 311 312 313 314 314 313 313 313 313 313
219 220 221 222 223 224 224 226 227 229 232 234 238 242 246 250 255 260 264 269 275 280 284 287 291 294 297 300 302 304 306 308 309 310 311 312 313 313 313 312 312 313 313
219 219 221 223 224 224 225 227 228 230 233 236 240 243 246 250 255 259 264 270 275 280 283 287 290 293 296 299 301 303 305 307 308 309 310 311 311 312 311 311 312 313 313
219 220 221 223 224 225 226 227 229 231 234 237 241 244 246 250 255 259 264 270 275 279 283 286 290 292 296 299 300 302 304 305 307 308 309 309 310 311 311 311 312 312 313
219 220 222 223 224 225 227 228 230 232 234 237 240 242 246 250 254 259 264 269 273 278 282 285 289 292 295 297 299 301 303 305 306 307 308 309 310 311 311 311 312 312 313
219 220 222 223 224 226 228 229 231 233 235 237 240 243 246 250 254 259 264 268 272 277 281 285 288 291 294 296 298 300 302 304 305 306 307 308 309 310 310 311 311 312 312
Height
5865 5867 5869 5871 5872 5874 5875 5876 5878 5879 5879 5880 5881 5882 5882 5882 5883 5883 5882 5882 5882 5881 5880 5880 5879 5878 5878 5877 5876 5874 5873 5871 5870 5868 5867 5865 5863 5861 5860 5858 5856 5854 5851
5862 5864 5866 5868 5870 5872 5873 5874 5876 5877 5878 5879 5879 5880 5881 5881 5881 5881 5881 5881 5880 5880 5879 5878 5878 5877 5876 5875 5874 5873 5871 5869 5868 5866 5864 5863 5861 5859 5857 5855 5852 5850 5848
5859 5861 5863 5865 5867 5869 5871 5872 5874 5875 5876 5877 5878 5879 5879 5880 5880 5880 5880 5879 5879 5878 5878 5877 5876 5875 5874 5873 5872 5870 5869 5867 5865 5863 5862 5860 5858 5856 5853 5851 5849 5846 5844
5855 5857 5859 5862 5864 5866 5868 5870 5871 5873 5874 5875 5876 5877 5877 5878 5878 5878 5878 5878 5877 5877 5876 5875 5874 5873 5872 5871 5870 5868 5866 5864 5863 5861 5859 5857 5855 5852 5850 5847 5845 5842 5839
5851 5854 5856 5858 5861 5863 5865 5867 5869 5870 5872 5873 5874 5875 5875 5876 5876 5876 5876 5876 5875 5875 5874 5873 5872 5871 5870 5869 5867 5866 5864 5862 5860 5858 5856 5854 5851 5849 5846 5843 5840 5837 5834
5847 5849 5852 5854 5857 5859 5862 5864 5866 5867 5869 5870 5871 5872 5873 5874 5874 5874 5874 5874 5873 5873 5872 5871 5870 5869 5868 5866 5865 5863 5861 5859 5857 5855 5853 5850 5848 5845 5842 5839 5836 5832 5829
5842 5845 5848 5850 5853 5856 5858 5860 5862 5864 5866 5868 5869 5870 5871 5872 5872 5872 5872 5871 5871 5870 5869 5868 5867 5866 5865 5864 5862 5860 5858 5856 5854 5851 5849 5846 5843 5840 5837 5834 5831 5827 5824
5836 5840 5843 5846 5849 5852 5854 5857 5859 5861 5863 5865 5866 5867 5868 5869 5869 5869 5869 5869 5868 5868 5867 5866 5865 5864 5863 5861 5859 5857 5855 5853 5850 5848 5845 5842 5839 5836 5832 5829 5825 5822 5818
5831 5834 5838 5841 5845 5848 5850 5853 5855 5858 5859 5861 5863 5864 5865 5866 5866 5866 5866 5866 5866 5865 5864 5863 5862 5861 5860 5858 5856 5854 5851 5849 5846 5844 5841 5838 5834 5831 5827 5824 5820 5816 5812
5825 5829 5833 5837 5840 5843 5846 5849 5851 5854 5856 5857 5859 5861 5862 5863 5863 5863 5863 5863 5863 5862 5861 5860 5859 5858 5856 5854 5852 5850 5848 5845 5842 5839 5836 5833 5830 5826 5822 5819 5815 5811 5807
5819 5823 5827 5831 5835 5838 5842 5844 5847 5850 5852 5854 5855 5857 5858 5859 5860 5860 5860 5860 5859 5859 5858 5857 5856 5855 5853 5851 5849 5846 5844 5841 5838 5835 5832 5828 5825 5821 5817 5813 5809 5805 5801
5814 5818 5822 5826 5830 5833 5837 5840 5843 5845 5848 5850 5851 5853 5854 5855 5856 5857 5857 5856 5856 5855 5855 5854 5852 5851 5849 5847 5845 5842 5840 5837 5834 5830 5827 5823 5819 5815 5811 5807 5803 5799 5795
5807 5811 5816 5820 5824 5828 5831 5835 5838 5841 5843 5845 5847 5849 5850 5851 5852 5853 5853 5853 5852 5852 5851 5850 5849 5847 5845 5843 5841 5838 5835 5832 5829 5825 5822 5818 5814 5810 5806 5802 5797 5793 5789
5801 5805 5809 5814 5818 5822 5826 5829 5833 5836 5839 5841 5843 5845 5846 5847 5848 5849 5849 5849 5849 5848 5847 5846 5845 5843 5841 5839 5836 5833 5831 5828 5824 5820 5817 5813 5809 5805 5800 5796 5791 5787 5783
5794 5798 5803 5808 5812 5816 5820 5824 5828 5831 5834 5836 5839 5840 5841 5843 5844 5844 5845 5845 5845 5844 5843 5842 5840 5838 5837 5834 5832 5829 5826 5822 5819 5815 5811 5807 5803 5799 5794 5790 5786 5781 5776
5787 5792 5797 5802 5806 5810 5814 5818 5822 5825 5829 5831 5834 5836 5837 5838 5839 5840 5840 5840 5840 5839 5838 5837 5836 5834 5832 5829 5827 5824 5820 5817 5813 5810 5806 5802 5797 5793 5789 5784 5780 5775 5770
5780 5786 5791 5795 5800 5804 5808 5813 5816 5820 5823 5826 5829 5831 5832 5834 5835 5835 5836 5836 5835 5835 5834 5833 5831 5829 5827 5824 5822 5818 5815 5811 5808 5804 5800 5796 5791 5787 5783 5778 5773 5769 5764
5773 5779 5784 5789 5793 5798 5802 5806 5810 5814 5817 5820 5823 5826 5827 5829 5830 5830 5831 5831 5831 5830 5829 5828 5826 5824 5822 5819 5816 5813 5809 5806 5802 5798 5794 5790 5785 5781 5776 5772 5767 5762 5757
5765 5771 5777 5782 5787 5792 5796 5800 5804 5808 5811 5814 5817 5820 5822 5823 5824 5825 5825 5826 5825 5825 5824 5823 5821 5819 5816 5814 5811 5807 5804 5800 5796 5792 5788 5784 5779 5775 5770 5765 5761 5756 5751
5757 5764 5770 5775 5780 5785 5789 5794 5798 5802 5805 5808 5811 5814 5816 5818 5819 5820 5820 5820 5820 5819 5818 5817 5815 5813 5811 5808 5805 5802 5798 5794 5790 5786 5782 5778 5773 5768 5764 5759 5754 5749 5744
5749 5756 5762 5768 5773 5778 5783 5788 5792 5796 5799 5802 5805 5808 5810 5812 5813 5814 5814 5815 5814 5814 5813 5811 5809 5807 5805 5802 5799 5796 5792 5788 5784 5780 5776 5771 5767 5762 5757 5752 5747 5742 5736
5741 5748 5754 5760 5766 5771 5776 5781 5785 5789 5792 5795 5798 5801 5804 5806 5807 5808 5808 5809 5808 5808 5807 5805 5804 5801 5799 5796 5793 5790 5786 5783 5778 5774 5769 5765 5760 5755 5750 5745 5740 5734 5729
5733 5741 5747 5753 5759 5764 5769 5773 5778 5782 5785 5789 5792 5795 5797 5799 5800 5801 5802 5802 5802 5802 5800 5799 5797 5795 5793 5790 5787 5784 5780 5777 5773 5768 5763 5758 5754 5749 5744 5738 5732 5727 5721
5726 5733 5739 5745 5751 5756 5761 5766 5771 5776 5780 5783 5786 5788 5790 5792 5794 5795 5795 5796 5796 5795 5794 5793 5791 5788 5786 5783 5780 5777 5774 5770 5766 5762 5757 5752 5747 5742 5736 5731 5725 5719 5713
5717 5724 5730 5736 5742 5748 5753 5759 5764 5769 5772 5776 5778 5781 5783 5785 5787 5788 5789 5789 5789 5788 5787 5786 5784 5782 5779 5776 5773 5770 5767 5763 5759 5756 5751 5746 5740 5734 5729 5723 5717 5711 5704
5708 5715 5721 5728 5734 5740 5745 5751 5756 5761 5764 5768 5771 5774 5776 5778 5780 5781 5782 5782 5782 5781 5780 5779 5777 5775 5772 5769 5767 5763 5760 5756 5753 5748 5744 5739 5734 5728 5722 5715 5709 5702 5696